owner,sensor,date,latitude,longitude,vertical_datum,wind_speed,wind_to_direction,wind_speed_of_gust,qcFlag 
TCOON,ioos:station:TCOON:518:1,2017-07-01T00:00:00Z,29.5150,-94.5133,0.0,5.4,168.0,6.8,'11111222,11111222,11111222' 
TCOON,ioos:station:TCOON:518:1,2017-07-01T00:06:00Z,29.5150,-94.5133,0.0,4.7,170.0,6.0,'11111222,11111222,11111222' 
TCOON,ioos:station:TCOON:518:1,2017-07-01T00:12:00Z,29.5150,-94.5133,0.0,4.2,167.0,6.1,'11111222,11111222,11111222' 
TCOON,ioos:station:TCOON:518:1,2017-07-01T00:18:00Z,29.5150,-94.5133,0.0,4.2,167.0,6.1,'1111122,1111122,1111122' 
TCOON,ioos:station:TCOON:518:1,2017-07-01T00:24:00Z,29.5150,-94.5133,0.0,5.3,164.0,6.2,'11111222,11111222,11111222' 
TCOON,ioos:station:TCOON:518:1,2017-07-01T00:30:00Z,29.5150,-94.5133,0.0,4.9,175.0,6.5,'11111222,11111222,11111222' 
TCOON,ioos:station:TCOON:518:1,2017-07-01T00:36:00Z,29.5150,-94.5133,0.0,5.5,166.0,6.8,'11111222,11111222,11111222' 
TCOON,ioos:station:TCOON:518:1,2017-07-01T00:42:00Z,29.5150,-94.5133,0.0,5.1,163.0,6.5,'11111222,11111222,11111222' 
TCOON,ioos:station:TCOON:518:1,2017-07-01T00:48:00Z,29.5150,-94.5133,0.0,5.2,165.0,6.6,'11111222,11111222,11111222' 
TCOON,ioos:station:TCOON:518:1,2017-07-01T00:54:00Z,29.5150,-94.5133,0.0,5.2,162.0,6.8,'11111222,11111222,11111222' 
TCOON,ioos:station:TCOON:518:1,2017-07-01T01:00:00Z,29.5150,-94.5133,0.0,5.3,167.0,6.2,'11111222,11111222,11111222' 
TCOON,ioos:station:TCOON:518:1,2017-07-01T01:06:00Z,29.5150,-94.5133,0.0,5.2,174.0,7.1,'11111222,11111222,11111222' 
TCOON,ioos:station:TCOON:518:1,2017-07-01T01:12:00Z,29.5150,-94.5133,0.0,5.1,169.0,6.8,'11111222,11111222,11111222' 
TCOON,ioos:station:TCOON:518:1,2017-07-01T01:18:00Z,29.5150,-94.5133,0.0,5.1,169.0,6.8,'1111122,1111122,1111122' 
TCOON,ioos:station:TCOON:518:1,2017-07-01T01:24:00Z,29.5150,-94.5133,0.0,5.4,173.0,7.2,'11111222,11111222,11111222' 
TCOON,ioos:station:TCOON:518:1,2017-07-01T01:30:00Z,29.5150,-94.5133,0.0,5.0,171.0,7.0,'11111222,11111222,11111222' 
TCOON,ioos:station:TCOON:518:1,2017-07-01T01:36:00Z,29.5150,-94.5133,0.0,3.8,180.0,6.3,'11111222,11111222,11111222' 
TCOON,ioos:station:TCOON:518:1,2017-07-01T01:42:00Z,29.5150,-94.5133,0.0,5.5,177.0,8.0,'11111222,11111222,11111222' 
TCOON,ioos:station:TCOON:518:1,2017-07-01T01:48:00Z,29.5150,-94.5133,0.0,6.5,170.0,8.2,'11111222,11111222,11111222' 
TCOON,ioos:station:TCOON:518:1,2017-07-01T01:54:00Z,29.5150,-94.5133,0.0,5.3,174.0,8.3,'11111222,11111222,11111222' 
TCOON,ioos:station:TCOON:518:1,2017-07-01T02:00:00Z,29.5150,-94.5133,0.0,5.4,171.0,8.3,'11111222,11111222,11111222' 
TCOON,ioos:station:TCOON:518:1,2017-07-01T02:06:00Z,29.5150,-94.5133,0.0,6.4,174.0,8.2,'11111222,11111222,11111222' 
TCOON,ioos:station:TCOON:518:1,2017-07-01T02:12:00Z,29.5150,-94.5133,0.0,5.7,172.0,8.3,'11111222,11111222,11111222' 
TCOON,ioos:station:TCOON:518:1,2017-07-01T02:18:00Z,29.5150,-94.5133,0.0,5.7,172.0,8.3,'1111122,1111122,1111122' 
TCOON,ioos:station:TCOON:518:1,2017-07-01T02:24:00Z,29.5150,-94.5133,0.0,4.2,177.0,8.5,'11111222,11111222,11111222' 
TCOON,ioos:station:TCOON:518:1,2017-07-01T02:30:00Z,29.5150,-94.5133,0.0,5.4,177.0,8.9,'11111222,11111222,11111222' 
TCOON,ioos:station:TCOON:518:1,2017-07-01T02:36:00Z,29.5150,-94.5133,0.0,5.4,175.0,8.0,'11111222,11111222,11111222' 
TCOON,ioos:station:TCOON:518:1,2017-07-01T02:42:00Z,29.5150,-94.5133,0.0,4.6,178.0,8.4,'11111222,11111222,11111222' 
TCOON,ioos:station:TCOON:518:1,2017-07-01T02:48:00Z,29.5150,-94.5133,0.0,5.5,173.0,9.6,'11111222,11111222,11111222' 
TCOON,ioos:station:TCOON:518:1,2017-07-01T02:54:00Z,29.5150,-94.5133,0.0,5.4,177.0,8.6,'11111222,11111222,11111222' 
TCOON,ioos:station:TCOON:518:1,2017-07-01T03:00:00Z,29.5150,-94.5133,0.0,6.5,176.0,9.5,'11111222,11111222,11111222' 
TCOON,ioos:station:TCOON:518:1,2017-07-01T03:06:00Z,29.5150,-94.5133,0.0,5.5,179.0,8.7,'11111222,11111222,11111222' 
TCOON,ioos:station:TCOON:518:1,2017-07-01T03:12:00Z,29.5150,-94.5133,0.0,5.5,180.0,7.6,'11111222,11111222,11111222' 
TCOON,ioos:station:TCOON:518:1,2017-07-01T03:18:00Z,29.5150,-94.5133,0.0,5.5,180.0,7.6,'1111122,1111122,1111122' 
TCOON,ioos:station:TCOON:518:1,2017-07-01T03:24:00Z,29.5150,-94.5133,0.0,5.2,181.0,8.4,'11111222,11111222,11111222' 
TCOON,ioos:station:TCOON:518:1,2017-07-01T03:30:00Z,29.5150,-94.5133,0.0,5.3,178.0,8.9,'11111222,11111222,11111222' 
TCOON,ioos:station:TCOON:518:1,2017-07-01T03:36:00Z,29.5150,-94.5133,0.0,5.3,181.0,8.8,'11111222,11111222,11111222' 
TCOON,ioos:station:TCOON:518:1,2017-07-01T03:42:00Z,29.5150,-94.5133,0.0,4.7,183.0,8.2,'11111222,11111222,11111222' 
TCOON,ioos:station:TCOON:518:1,2017-07-01T03:48:00Z,29.5150,-94.5133,0.0,4.2,182.0,8.2,'11111222,11111222,11111222' 
TCOON,ioos:station:TCOON:518:1,2017-07-01T03:54:00Z,29.5150,-94.5133,0.0,5.2,187.0,8.3,'11111222,11111222,11111222' 
TCOON,ioos:station:TCOON:518:1,2017-07-01T04:00:00Z,29.5150,-94.5133,0.0,5.1,185.0,7.4,'11111222,11111222,11111222' 
TCOON,ioos:station:TCOON:518:1,2017-07-01T04:06:00Z,29.5150,-94.5133,0.0,4.8,184.0,7.9,'11111222,11111222,11111222' 
TCOON,ioos:station:TCOON:518:1,2017-07-01T04:12:00Z,29.5150,-94.5133,0.0,5.4,187.0,8.2,'11111222,11111222,11111222' 
TCOON,ioos:station:TCOON:518:1,2017-07-01T04:18:00Z,29.5150,-94.5133,0.0,5.4,187.0,8.2,'1111122,1111122,1111122' 
TCOON,ioos:station:TCOON:518:1,2017-07-01T04:24:00Z,29.5150,-94.5133,0.0,4.8,187.0,6.8,'11111222,11111222,11111222' 
TCOON,ioos:station:TCOON:518:1,2017-07-01T04:30:00Z,29.5150,-94.5133,0.0,4.9,184.0,6.7,'11111222,11111222,11111222' 
TCOON,ioos:station:TCOON:518:1,2017-07-01T04:36:00Z,29.5150,-94.5133,0.0,4.5,183.0,7.1,'11111222,11111222,11111222' 
TCOON,ioos:station:TCOON:518:1,2017-07-01T04:42:00Z,29.5150,-94.5133,0.0,5.2,185.0,8.1,'11111222,11111222,11111222' 
TCOON,ioos:station:TCOON:518:1,2017-07-01T04:48:00Z,29.5150,-94.5133,0.0,4.6,183.0,7.6,'11111222,11111222,11111222' 
TCOON,ioos:station:TCOON:518:1,2017-07-01T04:54:00Z,29.5150,-94.5133,0.0,5.2,186.0,7.7,'11111222,11111222,11111222' 
TCOON,ioos:station:TCOON:518:1,2017-07-01T05:00:00Z,29.5150,-94.5133,0.0,5.2,189.0,8.9,'11111222,11111222,11111222' 
TCOON,ioos:station:TCOON:518:1,2017-07-01T05:06:00Z,29.5150,-94.5133,0.0,3.6,184.0,7.2,'11111222,11111222,11111222' 
TCOON,ioos:station:TCOON:518:1,2017-07-01T05:12:00Z,29.5150,-94.5133,0.0,4.7,184.0,8.2,'11111222,11111222,11111222' 
TCOON,ioos:station:TCOON:518:1,2017-07-01T05:18:00Z,29.5150,-94.5133,0.0,4.7,184.0,8.2,'1111122,1111122,1111122' 
TCOON,ioos:station:TCOON:518:1,2017-07-01T05:24:00Z,29.5150,-94.5133,0.0,4.2,190.0,6.7,'11111222,11111222,11111222' 
TCOON,ioos:station:TCOON:518:1,2017-07-01T05:30:00Z,29.5150,-94.5133,0.0,4.0,186.0,5.9,'11111222,11111222,11111222' 
TCOON,ioos:station:TCOON:518:1,2017-07-01T05:36:00Z,29.5150,-94.5133,0.0,4.3,191.0,6.6,'11111222,11111222,11111222' 
TCOON,ioos:station:TCOON:518:1,2017-07-01T05:42:00Z,29.5150,-94.5133,0.0,4.5,190.0,6.6,'11111222,11111222,11111222' 
TCOON,ioos:station:TCOON:518:1,2017-07-01T05:48:00Z,29.5150,-94.5133,0.0,4.5,186.0,7.3,'11111222,11111222,11111222' 
TCOON,ioos:station:TCOON:518:1,2017-07-01T05:54:00Z,29.5150,-94.5133,0.0,3.8,189.0,6.4,'11111222,11111222,11111222' 
TCOON,ioos:station:TCOON:518:1,2017-07-01T06:00:00Z,29.5150,-94.5133,0.0,4.4,191.0,5.9,'11111222,11111222,11111222' 
TCOON,ioos:station:TCOON:518:1,2017-07-01T06:06:00Z,29.5150,-94.5133,0.0,4.0,189.0,5.9,'11111222,11111222,11111222' 
TCOON,ioos:station:TCOON:518:1,2017-07-01T06:12:00Z,29.5150,-94.5133,0.0,3.9,194.0,6.3,'11111222,11111222,11111222' 
TCOON,ioos:station:TCOON:518:1,2017-07-01T06:18:00Z,29.5150,-94.5133,0.0,4.1,192.0,7.1,'11111222,11111222,11111222' 
TCOON,ioos:station:TCOON:518:1,2017-07-01T06:24:00Z,29.5150,-94.5133,0.0,4.1,192.0,7.1,'1111122,1111122,1111122' 
TCOON,ioos:station:TCOON:518:1,2017-07-01T06:30:00Z,29.5150,-94.5133,0.0,4.4,192.0,6.8,'11111222,11111222,11111222' 
TCOON,ioos:station:TCOON:518:1,2017-07-01T06:36:00Z,29.5150,-94.5133,0.0,3.9,187.0,6.9,'11111222,11111222,11111222' 
TCOON,ioos:station:TCOON:518:1,2017-07-01T06:42:00Z,29.5150,-94.5133,0.0,4.7,189.0,7.9,'11111222,11111222,11111222' 
TCOON,ioos:station:TCOON:518:1,2017-07-01T06:48:00Z,29.5150,-94.5133,0.0,4.2,188.0,7.2,'11111222,11111222,11111222' 
TCOON,ioos:station:TCOON:518:1,2017-07-01T06:54:00Z,29.5150,-94.5133,0.0,4.3,191.0,6.9,'11111222,11111222,11111222' 
TCOON,ioos:station:TCOON:518:1,2017-07-01T07:00:00Z,29.5150,-94.5133,0.0,4.6,193.0,7.0,'11111222,11111222,11111222' 
TCOON,ioos:station:TCOON:518:1,2017-07-01T07:06:00Z,29.5150,-94.5133,0.0,5.2,192.0,7.8,'11111222,11111222,11111222' 
TCOON,ioos:station:TCOON:518:1,2017-07-01T07:12:00Z,29.5150,-94.5133,0.0,3.8,189.0,7.4,'11111222,11111222,11111222' 
TCOON,ioos:station:TCOON:518:1,2017-07-01T07:18:00Z,29.5150,-94.5133,0.0,3.8,189.0,7.4,'1111122,1111122,1111122' 
TCOON,ioos:station:TCOON:518:1,2017-07-01T07:24:00Z,29.5150,-94.5133,0.0,3.6,185.0,6.7,'11111222,11111222,11111222' 
TCOON,ioos:station:TCOON:518:1,2017-07-01T07:30:00Z,29.5150,-94.5133,0.0,3.8,185.0,6.3,'11111222,11111222,11111222' 
TCOON,ioos:station:TCOON:518:1,2017-07-01T07:36:00Z,29.5150,-94.5133,0.0,3.9,187.0,7.6,'11111222,11111222,11111222' 
TCOON,ioos:station:TCOON:518:1,2017-07-01T07:42:00Z,29.5150,-94.5133,0.0,4.2,189.0,6.6,'11111222,11111222,11111222' 
TCOON,ioos:station:TCOON:518:1,2017-07-01T07:48:00Z,29.5150,-94.5133,0.0,3.9,184.0,6.0,'11111222,11111222,11111222' 
TCOON,ioos:station:TCOON:518:1,2017-07-01T07:54:00Z,29.5150,-94.5133,0.0,4.0,182.0,6.1,'11111222,11111222,11111222' 
TCOON,ioos:station:TCOON:518:1,2017-07-01T08:00:00Z,29.5150,-94.5133,0.0,4.5,178.0,6.8,'11111222,11111222,11111222' 
TCOON,ioos:station:TCOON:518:1,2017-07-01T08:06:00Z,29.5150,-94.5133,0.0,5.0,185.0,6.7,'11111222,11111222,11111222' 
TCOON,ioos:station:TCOON:518:1,2017-07-01T08:12:00Z,29.5150,-94.5133,0.0,3.5,182.0,5.9,'11111222,11111222,11111222' 
TCOON,ioos:station:TCOON:518:1,2017-07-01T08:18:00Z,29.5150,-94.5133,0.0,3.5,182.0,5.9,'1111122,1111122,1111122' 
TCOON,ioos:station:TCOON:518:1,2017-07-01T08:24:00Z,29.5150,-94.5133,0.0,3.9,184.0,6.4,'11111222,11111222,11111222' 
TCOON,ioos:station:TCOON:518:1,2017-07-01T08:30:00Z,29.5150,-94.5133,0.0,4.6,187.0,6.4,'11111222,11111222,11111222' 
TCOON,ioos:station:TCOON:518:1,2017-07-01T08:36:00Z,29.5150,-94.5133,0.0,4.6,188.0,6.3,'11111222,11111222,11111222' 
TCOON,ioos:station:TCOON:518:1,2017-07-01T08:42:00Z,29.5150,-94.5133,0.0,4.0,192.0,5.7,'11111222,11111222,11111222' 
TCOON,ioos:station:TCOON:518:1,2017-07-01T08:48:00Z,29.5150,-94.5133,0.0,3.9,192.0,6.4,'11111222,11111222,11111222' 
TCOON,ioos:station:TCOON:518:1,2017-07-01T08:54:00Z,29.5150,-94.5133,0.0,3.6,190.0,6.0,'11111222,11111222,11111222' 
TCOON,ioos:station:TCOON:518:1,2017-07-01T09:00:00Z,29.5150,-94.5133,0.0,3.6,191.0,6.2,'11111222,11111222,11111222' 
TCOON,ioos:station:TCOON:518:1,2017-07-01T09:06:00Z,29.5150,-94.5133,0.0,3.7,188.0,5.5,'11111222,11111222,11111222' 
TCOON,ioos:station:TCOON:518:1,2017-07-01T09:12:00Z,29.5150,-94.5133,0.0,3.8,188.0,6.4,'11111222,11111222,11111222' 
TCOON,ioos:station:TCOON:518:1,2017-07-01T09:18:00Z,29.5150,-94.5133,0.0,3.8,188.0,6.4,'1111122,1111122,1111122' 
TCOON,ioos:station:TCOON:518:1,2017-07-01T09:24:00Z,29.5150,-94.5133,0.0,4.3,185.0,6.3,'11111222,11111222,11111222' 
TCOON,ioos:station:TCOON:518:1,2017-07-01T09:30:00Z,29.5150,-94.5133,0.0,3.8,188.0,5.3,'11111222,11111222,11111222' 
TCOON,ioos:station:TCOON:518:1,2017-07-01T09:36:00Z,29.5150,-94.5133,0.0,3.2,186.0,5.5,'11111222,11111222,11111222' 
TCOON,ioos:station:TCOON:518:1,2017-07-01T09:42:00Z,29.5150,-94.5133,0.0,3.3,187.0,4.9,'11111222,11111222,11111222' 
TCOON,ioos:station:TCOON:518:1,2017-07-01T09:48:00Z,29.5150,-94.5133,0.0,3.7,187.0,5.8,'11111222,11111222,11111222' 
TCOON,ioos:station:TCOON:518:1,2017-07-01T09:54:00Z,29.5150,-94.5133,0.0,3.4,187.0,5.2,'11111222,11111222,11111222' 
TCOON,ioos:station:TCOON:518:1,2017-07-01T10:00:00Z,29.5150,-94.5133,0.0,4.0,190.0,5.9,'11111222,11111222,11111222' 
TCOON,ioos:station:TCOON:518:1,2017-07-01T10:06:00Z,29.5150,-94.5133,0.0,3.3,189.0,7.0,'11111222,11111222,11111222' 
TCOON,ioos:station:TCOON:518:1,2017-07-01T10:12:00Z,29.5150,-94.5133,0.0,3.6,183.0,5.7,'11111222,11111222,11111222' 
TCOON,ioos:station:TCOON:518:1,2017-07-01T10:18:00Z,29.5150,-94.5133,0.0,3.6,183.0,5.7,'1111122,1111122,1111122' 
TCOON,ioos:station:TCOON:518:1,2017-07-01T10:24:00Z,29.5150,-94.5133,0.0,3.2,186.0,6.4,'11111222,11111222,11111222' 
TCOON,ioos:station:TCOON:518:1,2017-07-01T10:30:00Z,29.5150,-94.5133,0.0,4.2,185.0,6.5,'11111222,11111222,11111222' 
TCOON,ioos:station:TCOON:518:1,2017-07-01T10:36:00Z,29.5150,-94.5133,0.0,3.8,186.0,6.7,'11111222,11111222,11111222' 
TCOON,ioos:station:TCOON:518:1,2017-07-01T10:42:00Z,29.5150,-94.5133,0.0,3.9,191.0,6.0,'11111222,11111222,11111222' 
TCOON,ioos:station:TCOON:518:1,2017-07-01T10:48:00Z,29.5150,-94.5133,0.0,3.4,190.0,5.7,'11111222,11111222,11111222' 
TCOON,ioos:station:TCOON:518:1,2017-07-01T10:54:00Z,29.5150,-94.5133,0.0,2.6,184.0,6.1,'11111222,11111222,11111222' 
TCOON,ioos:station:TCOON:518:1,2017-07-01T11:00:00Z,29.5150,-94.5133,0.0,3.0,192.0,4.4,'11111222,11111222,11111222' 
TCOON,ioos:station:TCOON:518:1,2017-07-01T11:06:00Z,29.5150,-94.5133,0.0,3.1,189.0,4.8,'11111222,11111222,11111222' 
TCOON,ioos:station:TCOON:518:1,2017-07-01T11:12:00Z,29.5150,-94.5133,0.0,3.4,189.0,4.7,'11111222,11111222,11111222' 
TCOON,ioos:station:TCOON:518:1,2017-07-01T11:18:00Z,29.5150,-94.5133,0.0,3.4,189.0,4.7,'1111122,1111122,1111122' 
TCOON,ioos:station:TCOON:518:1,2017-07-01T11:24:00Z,29.5150,-94.5133,0.0,1.9,194.0,3.2,'11111222,11111222,11111222' 
TCOON,ioos:station:TCOON:518:1,2017-07-01T11:30:00Z,29.5150,-94.5133,0.0,2.7,182.0,4.0,'11111222,11111222,11111222' 
TCOON,ioos:station:TCOON:518:1,2017-07-01T11:36:00Z,29.5150,-94.5133,0.0,3.0,189.0,4.2,'11111222,11111222,11111222' 
TCOON,ioos:station:TCOON:518:1,2017-07-01T11:42:00Z,29.5150,-94.5133,0.0,3.6,189.0,4.4,'11111222,11111222,11111222' 
TCOON,ioos:station:TCOON:518:1,2017-07-01T11:48:00Z,29.5150,-94.5133,0.0,2.4,188.0,4.8,'11111222,11111222,11111222' 
TCOON,ioos:station:TCOON:518:1,2017-07-01T11:54:00Z,29.5150,-94.5133,0.0,2.7,190.0,4.3,'11111222,11111222,11111222' 
TCOON,ioos:station:TCOON:518:1,2017-07-01T12:00:00Z,29.5150,-94.5133,0.0,1.7,199.0,4.3,'11111222,11111222,11111222' 
TCOON,ioos:station:TCOON:518:1,2017-07-01T12:06:00Z,29.5150,-94.5133,0.0,2.4,189.0,3.6,'11111222,11111222,11111222' 
TCOON,ioos:station:TCOON:518:1,2017-07-01T12:12:00Z,29.5150,-94.5133,0.0,2.1,188.0,3.7,'11111222,11111222,11111222' 
TCOON,ioos:station:TCOON:518:1,2017-07-01T12:18:00Z,29.5150,-94.5133,0.0,2.4,187.0,3.7,'11111222,11111222,11111222' 
TCOON,ioos:station:TCOON:518:1,2017-07-01T12:24:00Z,29.5150,-94.5133,0.0,2.4,187.0,3.7,'1111122,1111122,1111122' 
TCOON,ioos:station:TCOON:518:1,2017-07-01T12:30:00Z,29.5150,-94.5133,0.0,2.8,189.0,4.6,'11111222,11111222,11111222' 
TCOON,ioos:station:TCOON:518:1,2017-07-01T12:36:00Z,29.5150,-94.5133,0.0,2.5,192.0,4.0,'11111222,11111222,11111222' 
TCOON,ioos:station:TCOON:518:1,2017-07-01T12:42:00Z,29.5150,-94.5133,0.0,1.9,200.0,3.0,'11111222,11111222,11111222' 
TCOON,ioos:station:TCOON:518:1,2017-07-01T12:48:00Z,29.5150,-94.5133,0.0,2.1,195.0,3.1,'11111222,11111222,11111222' 
TCOON,ioos:station:TCOON:518:1,2017-07-01T12:54:00Z,29.5150,-94.5133,0.0,1.9,194.0,3.3,'11111222,11111222,11111222' 
TCOON,ioos:station:TCOON:518:1,2017-07-01T13:00:00Z,29.5150,-94.5133,0.0,2.4,181.0,3.5,'11111222,11111222,11111222' 
TCOON,ioos:station:TCOON:518:1,2017-07-01T13:06:00Z,29.5150,-94.5133,0.0,3.3,177.0,4.5,'11111222,11111222,11111222' 
TCOON,ioos:station:TCOON:518:1,2017-07-01T13:12:00Z,29.5150,-94.5133,0.0,2.9,187.0,5.4,'11111222,11111222,11111222' 
TCOON,ioos:station:TCOON:518:1,2017-07-01T13:18:00Z,29.5150,-94.5133,0.0,2.9,187.0,5.4,'1111122,1111122,1111122' 
TCOON,ioos:station:TCOON:518:1,2017-07-01T13:24:00Z,29.5150,-94.5133,0.0,1.4,202.0,4.0,'11111222,11111222,11111222' 
TCOON,ioos:station:TCOON:518:1,2017-07-01T13:30:00Z,29.5150,-94.5133,0.0,2.5,190.0,4.4,'11111222,11111222,11111222' 
TCOON,ioos:station:TCOON:518:1,2017-07-01T13:36:00Z,29.5150,-94.5133,0.0,3.6,173.0,4.7,'11111222,11111222,11111222' 
TCOON,ioos:station:TCOON:518:1,2017-07-01T13:42:00Z,29.5150,-94.5133,0.0,2.9,178.0,4.7,'11111222,11111222,11111222' 
TCOON,ioos:station:TCOON:518:1,2017-07-01T13:48:00Z,29.5150,-94.5133,0.0,3.7,176.0,5.0,'11111222,11111222,11111222' 
TCOON,ioos:station:TCOON:518:1,2017-07-01T13:54:00Z,29.5150,-94.5133,0.0,2.1,192.0,4.4,'11111222,11111222,11111222' 
TCOON,ioos:station:TCOON:518:1,2017-07-01T14:00:00Z,29.5150,-94.5133,0.0,2.5,185.0,3.9,'11111222,11111222,11111222' 
TCOON,ioos:station:TCOON:518:1,2017-07-01T14:06:00Z,29.5150,-94.5133,0.0,2.9,184.0,4.5,'11111222,11111222,11111222' 
TCOON,ioos:station:TCOON:518:1,2017-07-01T14:12:00Z,29.5150,-94.5133,0.0,2.0,191.0,4.2,'11111222,11111222,11111222' 
TCOON,ioos:station:TCOON:518:1,2017-07-01T14:18:00Z,29.5150,-94.5133,0.0,3.1,173.0,4.7,'11111222,11111222,11111222' 
TCOON,ioos:station:TCOON:518:1,2017-07-01T14:24:00Z,29.5150,-94.5133,0.0,3.1,173.0,4.7,'1111122,1111122,1111122' 
TCOON,ioos:station:TCOON:518:1,2017-07-01T14:30:00Z,29.5150,-94.5133,0.0,3.0,179.0,4.4,'11111222,11111222,11111222' 
TCOON,ioos:station:TCOON:518:1,2017-07-01T14:36:00Z,29.5150,-94.5133,0.0,3.1,178.0,5.3,'11111222,11111222,11111222' 
TCOON,ioos:station:TCOON:518:1,2017-07-01T14:42:00Z,29.5150,-94.5133,0.0,3.0,187.0,5.1,'11111222,11111222,11111222' 
TCOON,ioos:station:TCOON:518:1,2017-07-01T14:48:00Z,29.5150,-94.5133,0.0,2.9,185.0,4.6,'11111222,11111222,11111222' 
TCOON,ioos:station:TCOON:518:1,2017-07-01T14:54:00Z,29.5150,-94.5133,0.0,2.7,189.0,4.1,'11111222,11111222,11111222' 
TCOON,ioos:station:TCOON:518:1,2017-07-01T15:00:00Z,29.5150,-94.5133,0.0,3.2,174.0,4.6,'11111222,11111222,11111222' 
TCOON,ioos:station:TCOON:518:1,2017-07-01T15:06:00Z,29.5150,-94.5133,0.0,2.9,197.0,4.9,'11111222,11111222,11111222' 
TCOON,ioos:station:TCOON:518:1,2017-07-01T15:12:00Z,29.5150,-94.5133,0.0,2.3,175.0,6.0,'11111222,11111222,11111222' 
TCOON,ioos:station:TCOON:518:1,2017-07-01T15:18:00Z,29.5150,-94.5133,0.0,2.3,175.0,6.0,'1111122,1111122,1111122' 
TCOON,ioos:station:TCOON:518:1,2017-07-01T15:24:00Z,29.5150,-94.5133,0.0,3.7,162.0,4.8,'11111222,11111222,11111222' 
TCOON,ioos:station:TCOON:518:1,2017-07-01T15:30:00Z,29.5150,-94.5133,0.0,4.2,163.0,5.5,'11111222,11111222,11111222' 
TCOON,ioos:station:TCOON:518:1,2017-07-01T15:36:00Z,29.5150,-94.5133,0.0,3.7,172.0,5.1,'11111222,11111222,11111222' 
TCOON,ioos:station:TCOON:518:1,2017-07-01T15:42:00Z,29.5150,-94.5133,0.0,4.9,164.0,5.8,'11111222,11111222,11111222' 
TCOON,ioos:station:TCOON:518:1,2017-07-01T15:48:00Z,29.5150,-94.5133,0.0,4.1,167.0,5.9,'11111222,11111222,11111222' 
TCOON,ioos:station:TCOON:518:1,2017-07-01T15:54:00Z,29.5150,-94.5133,0.0,4.8,161.0,6.8,'11111222,11111222,11111222' 
TCOON,ioos:station:TCOON:518:1,2017-07-01T16:00:00Z,29.5150,-94.5133,0.0,4.1,171.0,6.4,'11111222,11111222,11111222' 
TCOON,ioos:station:TCOON:518:1,2017-07-01T16:06:00Z,29.5150,-94.5133,0.0,4.8,171.0,6.4,'11111222,11111222,11111222' 
TCOON,ioos:station:TCOON:518:1,2017-07-01T16:12:00Z,29.5150,-94.5133,0.0,4.3,167.0,6.1,'11111222,11111222,11111222' 
TCOON,ioos:station:TCOON:518:1,2017-07-01T16:18:00Z,29.5150,-94.5133,0.0,4.3,167.0,6.1,'1111122,1111122,1111122' 
TCOON,ioos:station:TCOON:518:1,2017-07-01T16:24:00Z,29.5150,-94.5133,0.0,5.2,170.0,6.2,'11111222,11111222,11111222' 
TCOON,ioos:station:TCOON:518:1,2017-07-01T16:30:00Z,29.5150,-94.5133,0.0,4.8,164.0,6.2,'11111222,11111222,11111222' 
TCOON,ioos:station:TCOON:518:1,2017-07-01T16:36:00Z,29.5150,-94.5133,0.0,4.8,166.0,6.0,'11111222,11111222,11111222' 
TCOON,ioos:station:TCOON:518:1,2017-07-01T16:42:00Z,29.5150,-94.5133,0.0,4.1,169.0,6.1,'11111222,11111222,11111222' 
TCOON,ioos:station:TCOON:518:1,2017-07-01T16:48:00Z,29.5150,-94.5133,0.0,4.3,174.0,6.0,'11111222,11111222,11111222' 
TCOON,ioos:station:TCOON:518:1,2017-07-01T16:54:00Z,29.5150,-94.5133,0.0,5.0,168.0,6.8,'11111222,11111222,11111222' 
TCOON,ioos:station:TCOON:518:1,2017-07-01T17:00:00Z,29.5150,-94.5133,0.0,4.9,167.0,6.5,'11111222,11111222,11111222' 
TCOON,ioos:station:TCOON:518:1,2017-07-01T17:06:00Z,29.5150,-94.5133,0.0,4.6,165.0,5.8,'11111222,11111222,11111222' 
TCOON,ioos:station:TCOON:518:1,2017-07-01T17:12:00Z,29.5150,-94.5133,0.0,4.2,180.0,6.3,'11111222,11111222,11111222' 
TCOON,ioos:station:TCOON:518:1,2017-07-01T17:18:00Z,29.5150,-94.5133,0.0,4.2,180.0,6.3,'1111122,1111122,1111122' 
TCOON,ioos:station:TCOON:518:1,2017-07-01T17:24:00Z,29.5150,-94.5133,0.0,3.8,180.0,6.5,'11111222,11111222,11111222' 
TCOON,ioos:station:TCOON:518:1,2017-07-01T17:30:00Z,29.5150,-94.5133,0.0,3.4,179.0,5.7,'11111222,11111222,11111222' 
TCOON,ioos:station:TCOON:518:1,2017-07-01T17:36:00Z,29.5150,-94.5133,0.0,5.8,170.0,6.7,'11111222,11111222,11111222' 
TCOON,ioos:station:TCOON:518:1,2017-07-01T17:42:00Z,29.5150,-94.5133,0.0,3.4,184.0,5.9,'11111222,11111222,11111222' 
TCOON,ioos:station:TCOON:518:1,2017-07-01T17:48:00Z,29.5150,-94.5133,0.0,4.1,181.0,5.5,'11111222,11111222,11111222' 
TCOON,ioos:station:TCOON:518:1,2017-07-01T17:54:00Z,29.5150,-94.5133,0.0,4.4,181.0,6.0,'11111222,11111222,11111222' 
TCOON,ioos:station:TCOON:518:1,2017-07-01T18:00:00Z,29.5150,-94.5133,0.0,3.4,184.0,5.9,'11111222,11111222,11111222' 
TCOON,ioos:station:TCOON:518:1,2017-07-01T18:06:00Z,29.5150,-94.5133,0.0,3.7,189.0,5.7,'11111222,11111222,11111222' 
TCOON,ioos:station:TCOON:518:1,2017-07-01T18:12:00Z,29.5150,-94.5133,0.0,4.0,184.0,6.5,'11111222,11111222,11111222' 
TCOON,ioos:station:TCOON:518:1,2017-07-01T18:18:00Z,29.5150,-94.5133,0.0,4.0,184.0,6.5,'1111122,1111122,1111122' 
TCOON,ioos:station:TCOON:518:1,2017-07-01T18:24:00Z,29.5150,-94.5133,0.0,4.8,177.0,5.9,'11111222,11111222,11111222' 
TCOON,ioos:station:TCOON:518:1,2017-07-01T18:30:00Z,29.5150,-94.5133,0.0,3.9,173.0,6.3,'11111222,11111222,11111222' 
TCOON,ioos:station:TCOON:518:1,2017-07-01T18:36:00Z,29.5150,-94.5133,0.0,2.9,185.0,5.8,'11111222,11111222,11111222' 
TCOON,ioos:station:TCOON:518:1,2017-07-01T18:42:00Z,29.5150,-94.5133,0.0,3.0,190.0,5.7,'11111222,11111222,11111222' 
TCOON,ioos:station:TCOON:518:1,2017-07-01T18:48:00Z,29.5150,-94.5133,0.0,3.7,177.0,5.6,'11111222,11111222,11111222' 
TCOON,ioos:station:TCOON:518:1,2017-07-01T18:54:00Z,29.5150,-94.5133,0.0,3.9,172.0,5.6,'11111222,11111222,11111222' 
TCOON,ioos:station:TCOON:518:1,2017-07-01T19:00:00Z,29.5150,-94.5133,0.0,3.5,190.0,5.3,'11111222,11111222,11111222' 
TCOON,ioos:station:TCOON:518:1,2017-07-01T19:06:00Z,29.5150,-94.5133,0.0,3.6,176.0,5.3,'11111222,11111222,11111222' 
TCOON,ioos:station:TCOON:518:1,2017-07-01T19:12:00Z,29.5150,-94.5133,0.0,3.2,191.0,5.9,'11111222,11111222,11111222' 
TCOON,ioos:station:TCOON:518:1,2017-07-01T19:18:00Z,29.5150,-94.5133,0.0,3.2,191.0,5.9,'1111122,1111122,1111122' 
TCOON,ioos:station:TCOON:518:1,2017-07-01T19:24:00Z,29.5150,-94.5133,0.0,3.6,178.0,5.9,'11111222,11111222,11111222' 
TCOON,ioos:station:TCOON:518:1,2017-07-01T19:30:00Z,29.5150,-94.5133,0.0,3.9,193.0,6.2,'11111222,11111222,11111222' 
TCOON,ioos:station:TCOON:518:1,2017-07-01T19:36:00Z,29.5150,-94.5133,0.0,3.4,183.0,5.0,'11111222,11111222,11111222' 
TCOON,ioos:station:TCOON:518:1,2017-07-01T19:42:00Z,29.5150,-94.5133,0.0,3.1,198.0,5.3,'11111222,11111222,11111222' 
TCOON,ioos:station:TCOON:518:1,2017-07-01T19:48:00Z,29.5150,-94.5133,0.0,3.1,191.0,5.0,'11111222,11111222,11111222' 
TCOON,ioos:station:TCOON:518:1,2017-07-01T19:54:00Z,29.5150,-94.5133,0.0,2.9,194.0,5.0,'11111222,11111222,11111222' 
TCOON,ioos:station:TCOON:518:1,2017-07-01T20:00:00Z,29.5150,-94.5133,0.0,4.3,174.0,6.1,'11111222,11111222,11111222' 
TCOON,ioos:station:TCOON:518:1,2017-07-01T20:06:00Z,29.5150,-94.5133,0.0,2.9,180.0,5.7,'11111222,11111222,11111222' 
TCOON,ioos:station:TCOON:518:1,2017-07-01T20:12:00Z,29.5150,-94.5133,0.0,3.3,175.0,6.4,'11111222,11111222,11111222' 
TCOON,ioos:station:TCOON:518:1,2017-07-01T20:18:00Z,29.5150,-94.5133,0.0,3.3,175.0,6.4,'1111122,1111122,1111122' 